Tracking 35237 objects as of 6-Sep-2026
HD Live streaming from Space Station
objects crossing your sky now

CZ-6A DEB

Track CZ-6A DEB now!
10-day predictions


NORAD ID: 57834
Int'l Code: 2023-139E
Launch date: September 10, 2023
Source: People's Republic of China (PRC)
Launch site: Taiyaun Space Center, China (TSC)

Note: This is SATELLITE DEBRIS
Your satellite tracking list
Your tracking list is empty




NASA's NSSDC Master Catalog

Two Line Element Set (TLE):
1 57834U 23139E   26248.85453333  .00000220  00000-0  79983-4 0  9995
2 57834  85.9918 211.0858 0012632  18.6232 341.5419 14.28436408155772
Source of the keplerian elements: AFSPC